San Jose, CA

4:55 AM PST on November 17, 2019 (GMT -0800)
San Jose International

Weather History for KSJC - October, 2019

Change the Weather History Date:

Saturday, October 19, 2019

  Actual Average Record
Temperature  
Mean Temperature 60 °F 63 °F  
Max Temperature 73 °F 73 °F 87 °F (1903)
Min Temperature 46 °F 52 °F 38 °F (1949)
Degree Days  
Heating Degree Days 5 3  
Month to date heating degree days 53 37  
Since 1 July heating degree days 70 56  
Cooling Degree Days 0 1  
Month to date cooling degree days 18 31  
Year to date cooling degree days 734 630  
Growing Degree Days 10 (Base 50)    
Moisture  
Dew Point 51 °F    
Average Humidity 74    
Maximum Humidity 93    
Minimum Humidity 55    
Precipitation  
Precipitation 0.00 in 0.03 in 1.26 in (2004)
Month to date precipitation 0.01 0.39  
Year to date precipitation 13.09 10.51  
Sea Level Pressure  
Sea Level Pressure 30.08 in    
Wind  
Wind Speed 5 mph (NNW)    
Max Wind Speed 14 mph    
Max Gust Speed 18 mph    
Visibility 10 miles    
Events      
T = Trace of Precipitation, MM = Missing Value Source: NWS Daily Summary

Daily Weather History Graph

Daily Weather History Graph

Search for Another Location

Airport or City:

Astronomy

Oct. 19, 2019 Rise Set
Actual Time 7:19 AM PDT 6:25 PM PDT
Civil Twilight 6:52 AM PDT 6:51 PM PDT
Nautical Twilight 6:22 AM PDT 7:22 PM PDT
Astronomical Twilight 5:52 AM PDT 7:52 PM PDT
Moon 10:44 PM PDT (10/19) 12:51 PM PDT (10/19)
Length of Visible Light 11h 58m
Length of Day
11h 06m
Waning Gibbous, 68% of the Moon is Illuminated
Oct 19
Waning Gibbous
Oct 21
Last Quarter
Oct 27
New
Nov 4
First Quarter
Nov 12
Full

Hourly Weather History & Observations

Time (PDT) Temp. Dew Point Humidity Pressure Visibility Wind Dir Wind Speed Gust Speed Precip Events Conditions
12:53 AM 51.1 °F 45.0 °F 80% 30.09 in 10.0 mi Calm Calm - N/A   Clear
1:53 AM 51.1 °F 45.0 °F 80% 30.09 in 10.0 mi SSE 3.5 mph - N/A   Clear
2:53 AM 48.0 °F 43.0 °F 83% 30.09 in 10.0 mi SE 3.5 mph - N/A   Clear
3:53 AM 50.0 °F 44.1 °F 80% 30.09 in 10.0 mi Calm Calm - N/A   Clear
4:53 AM 50.0 °F 44.1 °F 80% 30.09 in 10.0 mi Calm Calm - N/A   Clear
5:53 AM 48.0 °F 43.0 °F 83% 30.08 in 10.0 mi SSE 4.6 mph - N/A   Mostly Cloudy
6:53 AM 50.0 °F 44.1 °F 80% 30.09 in 10.0 mi SSE 4.6 mph - N/A   Mostly Cloudy
7:53 AM 48.0 °F 44.1 °F 86% 30.11 in 10.0 mi SE 4.6 mph - N/A   Mostly Cloudy
8:53 AM 53.1 °F 46.0 °F 77% 30.12 in 10.0 mi SSE 4.6 mph - N/A   Mostly Cloudy
9:53 AM 60.1 °F 46.0 °F 60% 30.12 in 10.0 mi Calm Calm - N/A   Mostly Cloudy
10:53 AM 62.1 °F 48.9 °F 62% 30.13 in 10.0 mi Calm Calm - N/A   Mostly Cloudy
11:53 AM 68.0 °F 52.0 °F 56% 30.12 in 10.0 mi Variable 6.9 mph - N/A   Scattered Clouds
12:53 PM 68.0 °F 55.9 °F 65% 30.10 in 10.0 mi NW 6.9 mph - N/A   Mostly Cloudy
1:53 PM 71.1 °F 55.9 °F 59% 30.07 in 10.0 mi Variable 4.6 mph - N/A   Mostly Cloudy
2:53 PM 73.0 °F 57.0 °F 57% 30.06 in 10.0 mi NW 11.5 mph - N/A   Mostly Cloudy
3:53 PM 71.1 °F 57.0 °F 61% 30.05 in 10.0 mi North 9.2 mph - N/A   Mostly Cloudy
4:53 PM 69.1 °F 59.0 °F 70% 30.04 in 10.0 mi NW 12.7 mph - N/A   Mostly Cloudy
5:53 PM 66.9 °F 60.1 °F 79% 30.04 in 10.0 mi NNW 8.1 mph - N/A   Mostly Cloudy
6:53 PM 62.1 °F 59.0 °F 90% 30.04 in 10.0 mi NNW 10.4 mph - N/A   Mostly Cloudy
7:53 PM 60.1 °F 57.0 °F 90% 30.06 in 10.0 mi North 10.4 mph - N/A   Partly Cloudy
8:53 PM 57.9 °F 55.9 °F 93% 30.07 in 10.0 mi NNW 9.2 mph - N/A   Partly Cloudy
9:53 PM 55.9 °F 54.0 °F 93% 30.07 in 10.0 mi NNW 5.8 mph - N/A   Partly Cloudy
10:53 PM 57.0 °F 55.0 °F 93% 30.09 in 10.0 mi North 3.5 mph - N/A   Partly Cloudy
11:53 PM 55.9 °F 54.0 °F 93% 30.09 in 10.0 mi Calm Calm - N/A   Partly Cloudy